Regional Weather Roundup
Issued by NWS Grand Forks, ND

Home | Current Version | Previous Version | Text Only | Print | Product List | Glossary Off
Versions: 1 2 3 4 5 6 7 8 9 10 11 12 13 14 15 16 17 18 19 20 21 22 23 24 25 26 27 28 29 30 31 32 33 34 35 36 37 38 39 40 41 42 43 44 45 46 47 48 49 50

000
ASUS43 KFGF 271931
RWRFGF
PRAIRIE TO PINES  WEATHER ROUNDUP
NATIONAL WEATHER SERVICE EASTERN NORTH DAKOTA/GRAND FORKS ND
200 PM CDT WED AUG 27 2014

 **SATELLITE DATA USED TO AUGMENT SKY COVER AT AUTOMATED STATIONS**
 *****  WEATHER ACROSS EASTERN NORTH DAKOTA  *****

CITY           SKY/WX    TMP DP  RH WIND       PRES   REMARKS
GRAND FORKS    MOSUNNY   72  51  47 S6        30.15F
GRAND FRKS AFB SUNNY     72  51  47 VRB6      30.15F
GRAND FRKS NWS   N/A     75 N/A N/A S3          N/A
DEVILS LAKE    PTSUNNY   72  54  53 S8        30.12F
FARGO          PTSUNNY   72  57  59 S6        30.16F
WAHPETON ARPT  MOCLDY    70  55  60 S7        30.16F
$$

 ***** WEATHER ACROSS CENTRAL AND WESTERN NORTH DAKOTA  *****

CITY           SKY/WX    TMP DP  RH WIND       PRES   REMARKS
BISMARCK       SUNNY     74  59  59 S7        30.12F
MINOT          SUNNY     74  53  48 SE10      30.08F
JAMESTOWN      SUNNY     71  58  63 SE8       30.14F
MINOT AFB      SUNNY     74  55  50 S7        30.07F
GARRISON         N/A     73  60  63 S6        30.10F
WILLISTON      SUNNY     79  53  40 S12       30.03F
DICKINSON      SUNNY     74  56  53 S8        30.09F
HETTINGER      SUNNY     73  58  59 SE13      30.12F
$$

 *****  OTHER AIRPORT OBSERVATIONS IN OUR AREA  *****

CITY           SKY/WX    TMP DP  RH WIND       PRES   REMARKS
WALHALLA       FAIR      73  50  43 S9G17     30.12F
GRAFTON AIRPOR FAIR      72  50  46 S9        30.14F
VALLEY CITY AR MOCLDY    70  59  68 SE9       30.15F
CANDO          FAIR      72  55  56 S9        30.12F
CAVALIER APRT  FAIR      73  52  46 S14       30.13F
GWINNER        MOCLDY    72  59  64 SE8       30.16F
SHEYENNE NWR     N/A     71  60  67 SE8       29.95
ROLLA          FAIR      68  55  64 SW12G17   30.13F
 ***** THE ABOVE OBSERVATIONS ARE NON NWS ARE NOT QUALITY
       CONTROLLED AND MAY MIS-REPORT RAIN FOR SNOW...
$$

  *****  WEATHER ACROSS NORTHERN MINNESOTA  *****

CITY           SKY/WX    TMP DP  RH WIND       PRES   REMARKS
FLAG ISLAND    SUNNY     66  55  68 S8        30.16S
WARROAD        SUNNY     70  54  56 NE6       30.17F
ROSEAU         SUNNY     72  48  43 CALM      30.16F
HALLOCK        SUNNY     73  46  38 S8        30.14F
THF RVR FALLS  SUNNY     70  50  49 W7        30.17S
BAUDETTE       SUNNY     70  49  47 N3        30.17F
WASKISH        SUNNY     70  54  56 CALM      30.18S
CROOKSTON      SUNNY     72  50  46 S5        30.16F
$$
  *****  WEATHER ACROSS CENTRAL AND WEST MINNESOTA  *****

CITY           SKY/WX    TMP DP  RH WIND       PRES   REMARKS
FOSSTON        MOSUNNY   72  52  49 CALM      30.18F
BEMIDJI        MOSUNNY   68  49  52 W3        30.18S
PARK RAPIDS    SUNNY     69  54  58 S9        30.19F
ELBOW LAKE     CLOUDY    69  58  68 SE9       30.18F
WADENA         CLOUDY    66  55  68 CALM      30.19F
DETROIT LAKES  PTSUNNY   68  55  64 S8        30.20S
MOORHEAD       MOSUNNY   72  61  68 SE8       30.16F
FERGUS FALLS   PTSUNNY   70  55  60 SE5       30.17F
MORRIS MN      MOSUNNY   75  57  53 CALM      30.16F
STAPLES        CLOUDY    66  55  68 SW3       30.20F
$$
  *****  WEATHER ELSEWHERE ACROSS MINNESOTA  *****

CITY           SKY/WX    TMP DP  RH WIND       PRES   REMARKS
DULUTH         MOSUNNY   69  47  45 NW6       30.20F
INTRNTL FALLS  MOSUNNY   66  51  58 CALM      30.17F
ELY            MOSUNNY   63  46  55 W3        30.19F
CLOQUET        PTSUNNY   66  46  48 CALM      30.20F
WHEATON        MOSUNNY   68  59  73 SE6       30.17F
BRAINERD       CLOUDY    65  55  70 S6        30.21F
HIBBING        MOSUNNY   69  48  47 SW8       30.20F
ALEXANDRIA     CLOUDY    69  57  65 S7        30.21F
SAINT CLOUD    PTSUNNY   73  56  54 S9        30.20F
MINNEAPOLIS    PTSUNNY   76  53  44 VRB5      30.19F
$$

  *****  WEATHER ACROSS SOUTH DAKOTA  *****

CITY           SKY/WX    TMP DP  RH WIND       PRES   REMARKS
SIOUX FALLS    PTSUNNY   72  62  71 SE15      30.14F
BROOKINGS      NOT AVBL
WATERTOWN      PTSUNNY   69  59  70 SE8       30.15F
HURON          MOSUNNY   75  63  66 SE12      30.10F
SISSETON         N/A     73  60  63 SE8       30.14F
ABERDEEN       PTSUNNY   70  61  73 S8        30.13F
MITCHELL       PTSUNNY   78  67  68 SE13      30.10S
PIERRE         MOSUNNY   75  65  70 SE10      30.07F
MOBRIDGE       CLOUDY    69  60  73 SE15      30.09F
RAPID CITY     PTSUNNY   73  61  65 E6        30.11F
$$

  *****  SOME WEATHER IN NEARBY STATES *****

CITY           SKY/WX    TMP DP  RH WIND       PRES   REMARKS
GLASGOW MT     SUNNY     80  54  40 S9        29.97F
GREAT FALLS MT SUNNY     79  44  28 W9        30.05F
CHEYENNE WY    CLOUDY    61  55  81 N7        30.22S
SCOTTSBLUFF NE CLOUDY    61  61 100 NW12      30.12F
OMAHA NE       RAIN      70  68  93 S13       30.13F FOG
DES MOINES IA  CLOUDY    74  66  76 SE3       30.16F
DAVENPORT IA   CLOUDY    76  64  66 N3        30.18S
CHICAGO IL     PTSUNNY   80  61  52 E9        30.13F
EAU CLAIRE WI  SUNNY     74  54  49 N5        30.19F
LA CROSSE WI   PTSUNNY   77  57  50 CALM      30.18S
$$

  *****  SOME NATIONAL WEATHER *****

CITY           SKY/WX    TMP DP  RH WIND       PRES   REMARKS
LA GUARDIA NY  MOSUNNY   89  61  38 SW8G28    29.91F
RALEIGH NC     MOSUNNY   85  60  42 N7        30.02F
ATLANTA GA     MOSUNNY   84  60  44 N8        30.09F
NEW ORLEANS LA PTSUNNY   89  73  59 E12       30.00F HX  97
OKLAHOMA CITY  MOSUNNY   92  64  39 E10G21    30.06F HX  93
ALBUQUERQUE NM MOSUNNY   75  54  47 CALM      30.29F
SALT LAKE CITY PTSUNNY   71  52  50 NW7       30.22F
LOS ANGELES CA MOSUNNY   80  63  55 W10       30.04S
BOISE ID       SUNNY     82  44  26 W7        30.13F
SEATTLE WA     MOSUNNY   75  57  53 SW8       30.07S
$$

*** WEATHER ACROSS MANITOBA...SASKATCHEWAN AND ONTARIO ***
                ***ONTARIO***

CITY           SKY/WX    TMP DP  RH WIND       PRES   REMARKS
GERALDTON      CLOUDY    57  46  67 NW12      30.13R
THUNDER BAY    PTSUNNY   64  46  52 W6        30.16S
SIOUX LOOKOUT  PTSUNNY   63  43  48 CALM      30.16S
TORONTO        PTSUNNY   75  55  50 NW17G24   30.03F
BIG TROUT LK   CLOUDY    54  46  76 SW9       30.09
PICKLE LAKE    PTSUNNY   59  43  55 NW5       30.11F
DRYDEN         MOSUNNY   64  45  48 SE5       30.16
KENORA         MOSUNNY   66  48  52 W3        30.16F
$$
                *** MANITOBA***

CITY           SKY/WX    TMP DP  RH WIND       PRES   REMARKS
BRANDON        SUNNY     73  54  49 S13G20    30.08F
DAUPHIN        SUNNY     77  54  44 SW14G22   30.00S
ISLAND LAKE    LGT RAIN N/A N/A N/A S6          N/A
PILOT MOUND      N/A     72  50  46 S13G18      N/A
THE PAS        MOSUNNY   79  55  44 S9        29.80F
THOMPSON       MOSUNNY   72  57  60 S14G23    29.76F
WINNIPEG       MOSUNNY   75  52  43 SW13      30.11F
LYNN LAKE      SUNNY     77  57  50 MISG      29.68F
CHURCHILL      PTSUNNY   63  48  59 S17G28    29.72F
GILLAM         MOSUNNY   68  52  56 S15       29.82F
$$
                ***SASKATCHEWAN***

CITY           SKY/WX    TMP DP  RH WIND       PRES   REMARKS
ESTEVAN        MOSUNNY   77  55  47 S10       30.03F
KINDERSLEY     SUNNY     82  52  34 SW12      29.85F
LLOYDMINSTER   CLOUDY    75  55  50 VRB2      29.86S
PRINCE ALBERT  MOSUNNY   79  59  50 SW8       29.83F
REGINA         SUNNY     79  52  38 SW12      29.95F
YORKTON        SUNNY     77  55  47 S13G22    29.97F
N. BATTLEFORD  MOSUNNY   75  57  53 VRB2      29.86S
LA RONGE       PTSUNNY   77  57  50 SW10      29.76F
SASKATOON      MOSUNNY   79  55  44 S12       29.86F
SWIFT CURRENT  SUNNY     82  43  24 SW20G30   29.90
$$
NOTE: THESE ARE AUTOMATED STATIONS WITH LIMITED QUALITY CONTROL
      "FAIR" INDICATES FEW OR NO CLOUDS BELOW 12,000 FEET WITH NO
      SIGNIFICANT WEATHER AND/OR OBSTRUCTIONS TO VISIBILITY.
      SKY/WX - SKY CONDITION AND SIGNIFICANT WEATHER.
      TMP - AIR TEMPERATURE.    DP   - DEWPOINT TEMPERATURE.
      RH  - RELATIVE HUMIDITY.  PRES - PRESSURE.
      HX  - HEAT INDEX.         WCI  - WIND CHILL INDEX.
$



USA.gov is the U.S. government's official web portal to all federal, state and local government web resources and services.